When you browse on this site, cookies collect data to enhance your experience and personalize the content and advertising you see.
Visit our Privacy Policy to learn more. By continuing to use the site, you agree to this use of cookies and data.
  • In United Kingdom
  • List of Countries
  • For 7 days
  • Water Temperature
  • Weather Map
  • Weather Widgets
  • user-avatar
    Login

    Hourly Weather Pyiterfolvo

    Today, 26 May, Tuesday

    Time Temperature Precipitation Wind Pressure Humidity
    00:00 +10°C° 0 mm 2 mps 754 mmHg 98%
    01:00 +9°C° 0 mm 2 mps 754 mmHg 94%
    02:00 +9°C° 0 mm 2 mps 754 mmHg 91%
    03:00 +8°C° 0 mm 2 mps 754 mmHg 94%
    04:00 +8°C° 0 mm 2 mps 754 mmHg 95%
    05:00 +7°C° 0 mm 2 mps 754 mmHg 96%
    06:00 +8°C° 0 mm 2 mps 754 mmHg 97%
    07:00 +11°C° 0 mm 1 mps 755 mmHg 96%
    08:00 +13°C° 0 mm 2 mps 755 mmHg 89%
    09:00 +14°C° 0 mm 3 mps 755 mmHg 86%
    10:00 +17°C° 0 mm 4 mps 755 mmHg 82%
    11:00 +16°C° 0 mm 5 mps 755 mmHg 77%
    12:00 +17°C° 0 mm 5 mps 754 mmHg 75%
    13:00 +17°C° 0 mm 5 mps 754 mmHg 73%
    14:00 +19°C° 0 mm 5 mps 754 mmHg 72%
    15:00 +19°C° 0 mm 5 mps 753 mmHg 70%
    16:00 +20°C° 0 mm 5 mps 753 mmHg 71%
    17:00 +18°C° 0.3 mm 4 mps 753 mmHg 77%
    18:00 +17°C° 0 mm 5 mps 753 mmHg 75%
    19:00 +17°C° 0 mm 5 mps 753 mmHg 80%
    20:00 +15°C° 0 mm 5 mps 754 mmHg 84%
    21:00 +13°C° 0 mm 4 mps 754 mmHg 89%
    22:00 +13°C° 0 mm 4 mps 754 mmHg 91%
    23:00 +13°C° 0 mm 4 mps 754 mmHg 92%

    Tomorrow, 27 May, Wednesday

    Time Temperature Precipitation Wind Pressure Humidity
    00:00 +13°C° 0 mm 4 mps 754 mmHg 92%
    01:00 +12°C° 0 mm 4 mps 754 mmHg 94%
    02:00 +12°C° 0 mm 4 mps 754 mmHg 94%
    03:00 +12°C° 0 mm 3 mps 754 mmHg 95%
    04:00 +13°C° 0 mm 2 mps 754 mmHg 95%
    05:00 +12°C° 0 mm 3 mps 754 mmHg 94%
    06:00 +12°C° 0 mm 3 mps 755 mmHg 92%
    07:00 +13°C° 0 mm 3 mps 755 mmHg 89%
    08:00 +14°C° 0 mm 4 mps 755 mmHg 85%
    09:00 +17°C° 0 mm 4 mps 756 mmHg 82%
    10:00 +18°C° 0 mm 4 mps 756 mmHg 77%
    11:00 +19°C° 0 mm 5 mps 756 mmHg 72%
    12:00 +20°C° 0 mm 6 mps 755 mmHg 71%
    13:00 +20°C° 0 mm 6 mps 755 mmHg 71%
    14:00 +20°C° 0 mm 6 mps 755 mmHg 69%
    15:00 +21°C° 0 mm 5 mps 754 mmHg 69%
    16:00 +21°C° 0 mm 5 mps 754 mmHg 67%
    17:00 +21°C° 0 mm 6 mps 754 mmHg 71%
    18:00 +20°C° 0 mm 5 mps 754 mmHg 73%
    19:00 +19°C° 0 mm 5 mps 754 mmHg 75%
    20:00 +17°C° 0 mm 4 mps 754 mmHg 79%
    21:00 +16°C° 0 mm 3 mps 755 mmHg 88%
    22:00 +14°C° 0 mm 3 mps 755 mmHg 90%
    23:00 +13°C° 0 mm 3 mps 755 mmHg 92%

    Day after tomorrow, 28 May, Thursday

    Time Temperature Precipitation Wind Pressure Humidity
    00:00 +12°C° 0 mm 3 mps 755 mmHg 94%
    01:00 +11°C° 0 mm 3 mps 754 mmHg 95%
    02:00 +11°C° 0 mm 3 mps 755 mmHg 96%
    03:00 +10°C° 0 mm 2 mps 754 mmHg 97%
    04:00 +10°C° 0 mm 2 mps 754 mmHg 98%
    05:00 +9°C° 0 mm 2 mps 754 mmHg 98%
    06:00 +10°C° 0 mm 2 mps 754 mmHg 98%
    07:00 +13°C° 0 mm 2 mps 754 mmHg 96%
    08:00 +14°C° 0 mm 3 mps 754 mmHg 92%
    09:00 +16°C° 0 mm 3 mps 754 mmHg 85%
    10:00 +18°C° 0 mm 3 mps 754 mmHg 80%
    11:00 +19°C° 0 mm 3 mps 754 mmHg 79%
    12:00 +19°C° 0 mm 3 mps 753 mmHg 73%
    13:00 +20°C° 0 mm 3 mps 753 mmHg 71%
    14:00 +20°C° 0.1 mm 3 mps 752 mmHg 70%
    15:00 +20°C° 0 mm 3 mps 752 mmHg 66%
    16:00 +20°C° 0 mm 4 mps 751 mmHg 70%
    17:00 +18°C° 0 mm 7 mps 751 mmHg 81%
    18:00 +16°C° 0 mm 5 mps 751 mmHg 81%
    19:00 +17°C° 0 mm 4 mps 751 mmHg 84%
    20:00 +17°C° 0 mm 4 mps 751 mmHg 89%
    21:00 +16°C° 0 mm 3 mps 751 mmHg 91%
    22:00 +16°C° 0 mm 2 mps 751 mmHg 92%
    23:00 +14°C° 0 mm 4 mps 751 mmHg 94%

    29 May, Friday

    Time Temperature Precipitation Wind Pressure Humidity
    00:00 +14°C° 0 mm 4 mps 751 mmHg 91%
    01:00 +13°C° 0 mm 3 mps 750 mmHg 94%
    02:00 +13°C° 0 mm 3 mps 751 mmHg 94%
    03:00 +12°C° 0 mm 3 mps 750 mmHg 95%
    04:00 +12°C° 0 mm 2 mps 750 mmHg 96%
    05:00 +12°C° 0 mm 2 mps 750 mmHg 96%
    06:00 +12°C° 0 mm 2 mps 750 mmHg 95%
    07:00 +13°C° 0 mm 3 mps 751 mmHg 90%
    08:00 +14°C° 0 mm 3 mps 751 mmHg 85%
    09:00 +16°C° 0 mm 3 mps 751 mmHg 82%
    10:00 +17°C° 0 mm 3 mps 751 mmHg 78%
    11:00 +15°C° 0.2 mm 4 mps 751 mmHg 78%
    12:00 +16°C° 1.3 mm 3 mps 751 mmHg 79%
    13:00 +18°C° 0.3 mm 3 mps 750 mmHg 76%
    14:00 +18°C° 0.5 mm 3 mps 750 mmHg 76%
    15:00 +18°C° 0.1 mm 3 mps 749 mmHg 69%
    16:00 +17°C° 0 mm 5 mps 749 mmHg 72%
    17:00 +17°C° 0.1 mm 5 mps 749 mmHg 74%
    18:00 +17°C° 0.1 mm 5 mps 749 mmHg 72%
    19:00 +17°C° 0 mm 4 mps 749 mmHg 77%
    20:00 +14°C° 0 mm 3 mps 749 mmHg 82%
    21:00 +13°C° 0 mm 3 mps 749 mmHg 85%
    22:00 +12°C° 0 mm 3 mps 749 mmHg 88%
    23:00 +12°C° 0 mm 3 mps 749 mmHg 89%

    30 May, Saturday

    Time Temperature Precipitation Wind Pressure Humidity
    00:00 +11°C° 0 mm 3 mps 749 mmHg 91%
    01:00 +11°C° 0 mm 3 mps 749 mmHg 92%
    02:00 +12°C° 0 mm 2 mps 749 mmHg 93%
    03:00 +10°C° 0 mm 2 mps 749 mmHg 94%
    04:00 +10°C° 0 mm 2 mps 749 mmHg 95%
    05:00 +10°C° 0 mm 2 mps 749 mmHg 95%
    06:00 +11°C° 0 mm 1 mps 749 mmHg 95%
    07:00 +13°C° 0 mm 2 mps 749 mmHg 91%
    08:00 +14°C° 0 mm 2 mps 749 mmHg 84%
    09:00 +15°C° 0 mm 1 mps 750 mmHg 81%
    10:00 +15°C° 0 mm 0 mps 750 mmHg 79%
    11:00 +18°C° 0 mm 1 mps 750 mmHg 74%
    12:00 +19°C° 0 mm 1 mps 750 mmHg 69%
    13:00 +18°C° 0 mm 2 mps 749 mmHg 73%
    14:00 +18°C° 0.1 mm 3 mps 749 mmHg 76%
    15:00 +15°C° 0.1 mm 4 mps 749 mmHg 77%
    16:00 +18°C° 0 mm 1 mps 749 mmHg 73%
    17:00 +19°C° 0 mm 1 mps 749 mmHg 68%
    18:00 +18°C° 0 mm 2 mps 749 mmHg 71%
    19:00 +17°C° 0 mm 2 mps 748 mmHg 84%
    20:00 +16°C° 0 mm 2 mps 749 mmHg 90%
    21:00 +15°C° 0 mm 2 mps 749 mmHg 94%
    22:00 +14°C° 0 mm 1 mps 749 mmHg 97%
    23:00 +14°C° 0 mm 1 mps 749 mmHg 99%

    31 May, Sunday

    Time Temperature Precipitation Wind Pressure Humidity
    00:00 +14°C° 0 mm 1 mps 749 mmHg 98%
    01:00 +13°C° 0 mm 2 mps 749 mmHg 98%
    02:00 +13°C° 0 mm 2 mps 749 mmHg 99%
    03:00 +12°C° 0 mm 2 mps 749 mmHg 100%
    04:00 +12°C° 0 mm 2 mps 749 mmHg 100%
    05:00 +12°C° 0 mm 1 mps 749 mmHg 100%
    06:00 +12°C° 0 mm 1 mps 749 mmHg 100%
    07:00 +13°C° 0 mm 2 mps 749 mmHg 99%
    08:00 +13°C° 0 mm 2 mps 749 mmHg 97%
    09:00 +14°C° 0 mm 1 mps 749 mmHg 95%
    10:00 +16°C° 0 mm 1 mps 749 mmHg 94%
    11:00 +18°C° 0 mm 1 mps 749 mmHg 87%
    12:00 +19°C° 0.2 mm 1 mps 749 mmHg 83%
    13:00 +17°C° 1.1 mm 2 mps 749 mmHg 87%
    14:00 +19°C° 0 mm 2 mps 748 mmHg 77%
    15:00 +20°C° 0 mm 2 mps 748 mmHg 73%
    16:00 +21°C° 0 mm 1 mps 747 mmHg 73%
    17:00 +21°C° 0 mm 1 mps 747 mmHg 71%
    18:00 +21°C° 0 mm 1 mps 747 mmHg 69%
    19:00 +20°C° 0 mm 1 mps 747 mmHg 75%
    20:00 +19°C° 0 mm 1 mps 747 mmHg 85%
    21:00 +18°C° 0 mm 1 mps 748 mmHg 92%
    22:00 +16°C° 0 mm 1 mps 748 mmHg 95%
    23:00 +15°C° 0 mm 0 mps 748 mmHg 96%
    Show more